Location: Gebenbach
(49.5378°N, 11.8735°E)
Time: 10:58:23
(UTC+00:00)

USA 307 - Pass Details

Date: 29 October 2020
Orbit: 569 x 579 km, 54.0° (Epoch: 23 November)

Event Time Altitude Azimuth Distance (km) Brightness Sun altitude
Rises 17:00:13 0° 295° (WNW) 2,791 7.5 -11.1°
Reaches altitude 10° 17:02:29 10° 296° (WNW) 1,889 6.5 -11.4°
Maximum altitude 17:06:47 87° 25° (NNE) 581 2.9 -12.1°
Enters shadow 17:10:18 15° 115° (ESE) 1,576 4.6 -12.7°
